owner,sensor,date,latitude,longitude,vertical_datum,mass_concentration_of_oxygen_in_sea_water,qcFlag 
SCCF RECON,ioos:station:SCCF:51:1,2009-04-01T00:00:00Z,26.5545,-82.1715,1.813,7.6,1111122 
SCCF RECON,ioos:station:SCCF:51:1,2009-04-01T01:00:00Z,26.5545,-82.1715,1.7,7.7,1111122 
SCCF RECON,ioos:station:SCCF:51:1,2009-04-01T02:00:00Z,26.5545,-82.1715,1.587,7.71,1111122 
SCCF RECON,ioos:station:SCCF:51:1,2009-04-01T03:00:00Z,26.5545,-82.1715,1.487,8.1,1111122 
SCCF RECON,ioos:station:SCCF:51:1,2009-04-01T04:00:00Z,26.5545,-82.1715,1.409,8.53,1111122 
SCCF RECON,ioos:station:SCCF:51:1,2009-04-01T05:00:00Z,26.5545,-82.1715,1.366,8.5,1111122 
SCCF RECON,ioos:station:SCCF:51:1,2009-04-01T06:00:00Z,26.5545,-82.1715,1.401,8.34,1111122 
SCCF RECON,ioos:station:SCCF:51:1,2009-04-01T07:00:00Z,26.5545,-82.1715,1.482,8.21,1111122 
SCCF RECON,ioos:station:SCCF:51:1,2009-04-01T08:00:00Z,26.5545,-82.1715,1.573,7.02,1111122 
SCCF RECON,ioos:station:SCCF:51:1,2009-04-01T09:00:00Z,26.5545,-82.1715,1.657,6.8,1111122 
SCCF RECON,ioos:station:SCCF:51:1,2009-04-01T10:00:00Z,26.5545,-82.1715,1.729,6.55,1111122 
SCCF RECON,ioos:station:SCCF:51:1,2009-04-01T11:00:00Z,26.5545,-82.1715,1.789,6.34,1111122 
SCCF RECON,ioos:station:SCCF:51:1,2009-04-01T12:00:00Z,26.5545,-82.1715,1.836,6.38,1111122 
SCCF RECON,ioos:station:SCCF:51:1,2009-04-01T13:00:00Z,26.5545,-82.1715,1.854,6.43,1111122 
SCCF RECON,ioos:station:SCCF:51:1,2009-04-01T14:00:00Z,26.5545,-82.1715,1.88,6.22,1111122 
SCCF RECON,ioos:station:SCCF:51:1,2009-04-01T15:00:00Z,26.5545,-82.1715,1.902,6.38,1111122 
SCCF RECON,ioos:station:SCCF:51:1,2009-04-01T16:00:00Z,26.5545,-82.1715,1.917,6.5,1111122 
SCCF RECON,ioos:station:SCCF:51:1,2009-04-01T17:00:00Z,26.5545,-82.1715,1.96,6.66,1111122 
SCCF RECON,ioos:station:SCCF:51:1,2009-04-01T18:00:00Z,26.5545,-82.1715,2.001,6.74,1111122 
SCCF RECON,ioos:station:SCCF:51:1,2009-04-01T19:00:00Z,26.5545,-82.1715,2.048,6.77,1111122 
SCCF RECON,ioos:station:SCCF:51:1,2009-04-01T20:00:00Z,26.5545,-82.1715,2.091,7.01,1111122 
SCCF RECON,ioos:station:SCCF:51:1,2009-04-01T21:00:00Z,26.5545,-82.1715,2.092,7.04,1111122 
SCCF RECON,ioos:station:SCCF:51:1,2009-04-01T22:00:00Z,26.5545,-82.1715,2.066,7.05,1111122 
SCCF RECON,ioos:station:SCCF:51:1,2009-04-01T23:00:00Z,26.5545,-82.1715,2.021,6.77,1111122 
SCCF RECON,ioos:station:SCCF:51:1,2009-04-02T00:00:00Z,26.5545,-82.1715,1.958,6.97,1111122 
SCCF RECON,ioos:station:SCCF:51:1,2009-04-02T01:00:00Z,26.5545,-82.1715,1.877,7.63,1111122 
SCCF RECON,ioos:station:SCCF:51:1,2009-04-02T02:00:00Z,26.5545,-82.1715,1.777,7.37,1111122 
SCCF RECON,ioos:station:SCCF:51:1,2009-04-02T03:00:00Z,26.5545,-82.1715,1.665,6.93,1111122 
SCCF RECON,ioos:station:SCCF:51:1,2009-04-02T04:00:00Z,26.5545,-82.1715,1.556,6.85,1111122 
SCCF RECON,ioos:station:SCCF:51:1,2009-04-02T05:00:00Z,26.5545,-82.1715,1.461,7.23,1111122 
SCCF RECON,ioos:station:SCCF:51:1,2009-04-02T06:00:00Z,26.5545,-82.1715,1.403,6.58,1111122 
SCCF RECON,ioos:station:SCCF:51:1,2009-04-02T07:00:00Z,26.5545,-82.1715,1.419,6.61,1111122 
SCCF RECON,ioos:station:SCCF:51:1,2009-04-02T08:00:00Z,26.5545,-82.1715,1.476,7.38,1111122 
SCCF RECON,ioos:station:SCCF:51:1,2009-04-02T09:00:00Z,26.5545,-82.1715,1.567,6.48,1111122 
SCCF RECON,ioos:station:SCCF:51:1,2009-04-02T10:00:00Z,26.5545,-82.1715,1.662,6.13,1111122 
SCCF RECON,ioos:station:SCCF:51:1,2009-04-02T11:00:00Z,26.5545,-82.1715,1.751,6.09,1111122 
SCCF RECON,ioos:station:SCCF:51:1,2009-04-02T12:00:00Z,26.5545,-82.1715,1.837,6.13,1111122 
SCCF RECON,ioos:station:SCCF:51:1,2009-04-02T13:00:00Z,26.5545,-82.1715,1.909,6.23,1111122 
SCCF RECON,ioos:station:SCCF:51:1,2009-04-02T14:00:00Z,26.5545,-82.1715,1.951,6.27,1111122 
SCCF RECON,ioos:station:SCCF:51:1,2009-04-02T15:00:00Z,26.5545,-82.1715,1.945,6.14,1111122 
SCCF RECON,ioos:station:SCCF:51:1,2009-04-02T16:00:00Z,26.5545,-82.1715,1.928,6.37,1111122 
SCCF RECON,ioos:station:SCCF:51:1,2009-04-02T17:00:00Z,26.5545,-82.1715,1.937,6.62,1111122 
SCCF RECON,ioos:station:SCCF:51:1,2009-04-02T18:00:00Z,26.5545,-82.1715,1.974,6.71,1111122 
SCCF RECON,ioos:station:SCCF:51:1,2009-04-02T19:00:00Z,26.5545,-82.1715,2.01,6.71,1111122 
SCCF RECON,ioos:station:SCCF:51:1,2009-04-02T20:00:00Z,26.5545,-82.1715,2.053,6.72,1111122 
SCCF RECON,ioos:station:SCCF:51:1,2009-04-02T21:00:00Z,26.5545,-82.1715,2.086,6.71,1111122 
SCCF RECON,ioos:station:SCCF:51:1,2009-04-02T22:00:00Z,26.5545,-82.1715,2.072,6.77,1111122 
SCCF RECON,ioos:station:SCCF:51:1,2009-04-02T23:00:00Z,26.5545,-82.1715,2.049,6.8,1111122 
SCCF RECON,ioos:station:SCCF:51:1,2009-04-03T00:00:00Z,26.5545,-82.1715,2.017,6.8,1111122 
SCCF RECON,ioos:station:SCCF:51:1,2009-04-03T01:00:00Z,26.5545,-82.1715,1.975,6.67,1111122 
SCCF RECON,ioos:station:SCCF:51:1,2009-04-03T02:00:00Z,26.5545,-82.1715,1.898,6.7,1111122 
SCCF RECON,ioos:station:SCCF:51:1,2009-04-03T03:00:00Z,26.5545,-82.1715,1.807,6.93,1111122 
SCCF RECON,ioos:station:SCCF:51:1,2009-04-03T04:00:00Z,26.5545,-82.1715,1.714,6.36,1111122 
SCCF RECON,ioos:station:SCCF:51:1,2009-04-03T05:00:00Z,26.5545,-82.1715,1.611,6.15,1111122 
SCCF RECON,ioos:station:SCCF:51:1,2009-04-03T06:00:00Z,26.5545,-82.1715,1.54,6.22,1111122 
SCCF RECON,ioos:station:SCCF:51:1,2009-04-03T07:00:00Z,26.5545,-82.1715,1.473,6.2,1111122 
SCCF RECON,ioos:station:SCCF:51:1,2009-04-03T08:00:00Z,26.5545,-82.1715,1.478,6.14,1111122 
SCCF RECON,ioos:station:SCCF:51:1,2009-04-03T09:00:00Z,26.5545,-82.1715,1.534,6.05,1111122 
SCCF RECON,ioos:station:SCCF:51:1,2009-04-03T10:00:00Z,26.5545,-82.1715,1.616,5.99,1111122 
SCCF RECON,ioos:station:SCCF:51:1,2009-04-03T11:00:00Z,26.5545,-82.1715,1.71,5.94,1111122 
SCCF RECON,ioos:station:SCCF:51:1,2009-04-03T12:00:00Z,26.5545,-82.1715,1.805,5.47,1111122 
SCCF RECON,ioos:station:SCCF:51:1,2009-04-03T13:00:00Z,26.5545,-82.1715,1.91,5.55,1111122 
SCCF RECON,ioos:station:SCCF:51:1,2009-04-03T14:00:00Z,26.5545,-82.1715,1.0,-9999.0,1111122 
SCCF RECON,ioos:station:SCCF:51:1,2009-04-03T15:00:00Z,26.5545,-82.1715,2.003,5.76,1111122 
SCCF RECON,ioos:station:SCCF:51:1,2009-04-03T16:00:00Z,26.5545,-82.1715,1.985,5.78,1111122 
SCCF RECON,ioos:station:SCCF:51:1,2009-04-03T17:00:00Z,26.5545,-82.1715,1.964,5.87,1111122 
SCCF RECON,ioos:station:SCCF:51:1,2009-04-03T18:00:00Z,26.5545,-82.1715,1.924,5.99,1111122 
SCCF RECON,ioos:station:SCCF:51:1,2009-04-03T19:00:00Z,26.5545,-82.1715,1.911,6.09,1111122 
SCCF RECON,ioos:station:SCCF:51:1,2009-04-03T20:00:00Z,26.5545,-82.1715,1.943,6.15,1111122 
SCCF RECON,ioos:station:SCCF:51:1,2009-04-03T21:00:00Z,26.5545,-82.1715,2.015,6.07,1111122 
SCCF RECON,ioos:station:SCCF:51:1,2009-04-03T22:00:00Z,26.5545,-82.1715,2.042,5.96,1111122 
SCCF RECON,ioos:station:SCCF:51:1,2009-04-03T23:00:00Z,26.5545,-82.1715,2.053,5.97,1111122 
SCCF RECON,ioos:station:SCCF:51:1,2009-04-04T00:00:00Z,26.5545,-82.1715,2.034,5.95,1111122 
SCCF RECON,ioos:station:SCCF:51:1,2009-04-04T01:00:00Z,26.5545,-82.1715,1.99,5.98,1111122 
SCCF RECON,ioos:station:SCCF:51:1,2009-04-04T02:00:00Z,26.5545,-82.1715,1.943,6.03,1111122 
SCCF RECON,ioos:station:SCCF:51:1,2009-04-04T03:00:00Z,26.5545,-82.1715,1.88,5.98,1111122 
SCCF RECON,ioos:station:SCCF:51:1,2009-04-04T04:00:00Z,26.5545,-82.1715,1.8,5.92,1111122 
SCCF RECON,ioos:station:SCCF:51:1,2009-04-04T05:00:00Z,26.5545,-82.1715,1.7,5.94,1111122 
SCCF RECON,ioos:station:SCCF:51:1,2009-04-04T06:00:00Z,26.5545,-82.1715,1.6,5.97,1111122 
SCCF RECON,ioos:station:SCCF:51:1,2009-04-04T07:00:00Z,26.5545,-82.1715,1.492,6.04,1111122 
SCCF RECON,ioos:station:SCCF:51:1,2009-04-04T08:00:00Z,26.5545,-82.1715,1.41,5.96,1111122 
SCCF RECON,ioos:station:SCCF:51:1,2009-04-04T09:00:00Z,26.5545,-82.1715,1.395,6.04,1111122 
SCCF RECON,ioos:station:SCCF:51:1,2009-04-04T10:00:00Z,26.5545,-82.1715,1.452,5.94,1111122 
SCCF RECON,ioos:station:SCCF:51:1,2009-04-04T11:00:00Z,26.5545,-82.1715,1.541,5.78,1111122 
SCCF RECON,ioos:station:SCCF:51:1,2009-04-04T12:00:00Z,26.5545,-82.1715,1.652,5.64,1111122 
SCCF RECON,ioos:station:SCCF:51:1,2009-04-04T13:00:00Z,26.5545,-82.1715,1.751,5.74,1111122 
SCCF RECON,ioos:station:SCCF:51:1,2009-04-04T14:00:00Z,26.5545,-82.1715,1.822,5.64,1111122 
SCCF RECON,ioos:station:SCCF:51:1,2009-04-04T15:00:00Z,26.5545,-82.1715,1.862,5.52,1111122 
SCCF RECON,ioos:station:SCCF:51:1,2009-04-04T16:00:00Z,26.5545,-82.1715,1.867,5.81,1111122 
SCCF RECON,ioos:station:SCCF:51:1,2009-04-04T17:00:00Z,26.5545,-82.1715,1.837,5.92,1111122 
SCCF RECON,ioos:station:SCCF:51:1,2009-04-04T18:00:00Z,26.5545,-82.1715,1.802,6.1,1111122 
SCCF RECON,ioos:station:SCCF:51:1,2009-04-04T19:00:00Z,26.5545,-82.1715,1.759,6.34,1111122 
SCCF RECON,ioos:station:SCCF:51:1,2009-04-04T20:00:00Z,26.5545,-82.1715,1.731,6.47,1111122 
SCCF RECON,ioos:station:SCCF:51:1,2009-04-04T21:00:00Z,26.5545,-82.1715,1.741,6.56,1111122 
SCCF RECON,ioos:station:SCCF:51:1,2009-04-04T22:00:00Z,26.5545,-82.1715,1.794,6.71,1111122 
SCCF RECON,ioos:station:SCCF:51:1,2009-04-04T23:00:00Z,26.5545,-82.1715,1.869,6.55,1111122 
SCCF RECON,ioos:station:SCCF:51:1,2009-04-05T00:00:00Z,26.5545,-82.1715,1.931,6.42,1111122 
SCCF RECON,ioos:station:SCCF:51:1,2009-04-05T01:00:00Z,26.5545,-82.1715,1.979,6.21,1111122 
SCCF RECON,ioos:station:SCCF:51:1,2009-04-05T02:00:00Z,26.5545,-82.1715,1.985,6.22,1111122 
SCCF RECON,ioos:station:SCCF:51:1,2009-04-05T03:00:00Z,26.5545,-82.1715,1.973,6.27,1111122 
SCCF RECON,ioos:station:SCCF:51:1,2009-04-05T04:00:00Z,26.5545,-82.1715,1.93,6.34,1111122 
SCCF RECON,ioos:station:SCCF:51:1,2009-04-05T05:00:00Z,26.5545,-82.1715,1.84,6.31,1111122 
SCCF RECON,ioos:station:SCCF:51:1,2009-04-05T06:00:00Z,26.5545,-82.1715,1.73,6.42,1111122 
SCCF RECON,ioos:station:SCCF:51:1,2009-04-05T07:00:00Z,26.5545,-82.1715,1.62,6.32,1111122 
SCCF RECON,ioos:station:SCCF:51:1,2009-04-05T08:00:00Z,26.5545,-82.1715,1.511,6.14,1111122 
SCCF RECON,ioos:station:SCCF:51:1,2009-04-05T09:00:00Z,26.5545,-82.1715,1.434,6.21,1111122 
SCCF RECON,ioos:station:SCCF:51:1,2009-04-05T10:00:00Z,26.5545,-82.1715,1.43,6.19,1111122 
SCCF RECON,ioos:station:SCCF:51:1,2009-04-05T11:00:00Z,26.5545,-82.1715,1.5,6.11,1111122 
SCCF RECON,ioos:station:SCCF:51:1,2009-04-05T12:00:00Z,26.5545,-82.1715,1.607,6.1,1111122 
SCCF RECON,ioos:station:SCCF:51:1,2009-04-05T13:00:00Z,26.5545,-82.1715,1.728,5.83,1111122 
SCCF RECON,ioos:station:SCCF:51:1,2009-04-05T14:00:00Z,26.5545,-82.1715,1.837,5.92,1111122 
SCCF RECON,ioos:station:SCCF:51:1,2009-04-05T15:00:00Z,26.5545,-82.1715,1.918,5.78,1111122 
SCCF RECON,ioos:station:SCCF:51:1,2009-04-05T16:00:00Z,26.5545,-82.1715,1.965,5.86,1111122 
SCCF RECON,ioos:station:SCCF:51:1,2009-04-05T17:00:00Z,26.5545,-82.1715,1.943,5.87,1111122 
SCCF RECON,ioos:station:SCCF:51:1,2009-04-05T18:00:00Z,26.5545,-82.1715,1.877,6.04,1111122 
SCCF RECON,ioos:station:SCCF:51:1,2009-04-05T19:00:00Z,26.5545,-82.1715,1.8,6.41,1111122 
SCCF RECON,ioos:station:SCCF:51:1,2009-04-05T20:00:00Z,26.5545,-82.1715,1.718,6.48,1111122 
SCCF RECON,ioos:station:SCCF:51:1,2009-04-05T21:00:00Z,26.5545,-82.1715,1.673,6.85,1111122 
SCCF RECON,ioos:station:SCCF:51:1,2009-04-05T22:00:00Z,26.5545,-82.1715,1.691,6.73,1111122 
SCCF RECON,ioos:station:SCCF:51:1,2009-04-05T23:00:00Z,26.5545,-82.1715,1.752,6.67,1111122 
SCCF RECON,ioos:station:SCCF:51:1,2009-04-06T00:00:00Z,26.5545,-82.1715,1.842,6.38,1111122 
SCCF RECON,ioos:station:SCCF:51:1,2009-04-06T01:00:00Z,26.5545,-82.1715,1.94,5.99,1111122 
SCCF RECON,ioos:station:SCCF:51:1,2009-04-06T02:00:00Z,26.5545,-82.1715,2.017,5.91,1111122 
SCCF RECON,ioos:station:SCCF:51:1,2009-04-06T03:00:00Z,26.5545,-82.1715,2.047,5.85,1111122 
SCCF RECON,ioos:station:SCCF:51:1,2009-04-06T04:00:00Z,26.5545,-82.1715,2.028,5.84,1111122 
SCCF RECON,ioos:station:SCCF:51:1,2009-04-06T05:00:00Z,26.5545,-82.1715,1.965,5.85,1111122 
SCCF RECON,ioos:station:SCCF:51:1,2009-04-06T06:00:00Z,26.5545,-82.1715,1.866,6.0,1111122 
SCCF RECON,ioos:station:SCCF:51:1,2009-04-06T07:00:00Z,26.5545,-82.1715,1.75,6.34,1111122 
SCCF RECON,ioos:station:SCCF:51:1,2009-04-06T08:00:00Z,26.5545,-82.1715,1.631,6.39,1111122 
SCCF RECON,ioos:station:SCCF:51:1,2009-04-06T09:00:00Z,26.5545,-82.1715,1.538,6.05,1111122 
SCCF RECON,ioos:station:SCCF:51:1,2009-04-06T10:00:00Z,26.5545,-82.1715,1.483,5.95,1111122 
SCCF RECON,ioos:station:SCCF:51:1,2009-04-06T11:00:00Z,26.5545,-82.1715,1.518,6.07,1111122 
SCCF RECON,ioos:station:SCCF:51:1,2009-04-06T12:00:00Z,26.5545,-82.1715,1.603,5.81,1111122 
SCCF RECON,ioos:station:SCCF:51:1,2009-04-06T13:00:00Z,26.5545,-82.1715,1.717,5.64,1111122 
SCCF RECON,ioos:station:SCCF:51:1,2009-04-06T14:00:00Z,26.5545,-82.1715,1.833,5.64,1111122 
SCCF RECON,ioos:station:SCCF:51:1,2009-04-06T15:00:00Z,26.5545,-82.1715,1.926,5.51,1111122 
SCCF RECON,ioos:station:SCCF:51:1,2009-04-06T16:00:00Z,26.5545,-82.1715,1.974,5.64,1111122 
SCCF RECON,ioos:station:SCCF:51:1,2009-04-06T17:00:00Z,26.5545,-82.1715,1.963,5.84,1111122 
SCCF RECON,ioos:station:SCCF:51:1,2009-04-06T18:00:00Z,26.5545,-82.1715,1.895,5.99,1111122 
SCCF RECON,ioos:station:SCCF:51:1,2009-04-06T19:00:00Z,26.5545,-82.1715,1.806,6.32,1111122 
SCCF RECON,ioos:station:SCCF:51:1,2009-04-06T20:00:00Z,26.5545,-82.1715,1.702,6.4,1111122 
SCCF RECON,ioos:station:SCCF:51:1,2009-04-06T21:00:00Z,26.5545,-82.1715,1.647,6.48,1111122 
SCCF RECON,ioos:station:SCCF:51:1,2009-04-06T22:00:00Z,26.5545,-82.1715,1.64,6.78,1111122 
SCCF RECON,ioos:station:SCCF:51:1,2009-04-06T23:00:00Z,26.5545,-82.1715,1.637,6.1,1111122 
SCCF RECON,ioos:station:SCCF:51:1,2009-04-07T00:00:00Z,26.5545,-82.1715,1.687,5.82,1111122 
SCCF RECON,ioos:station:SCCF:51:1,2009-04-07T01:00:00Z,26.5545,-82.1715,1.758,5.84,1111122 
SCCF RECON,ioos:station:SCCF:51:1,2009-04-07T02:00:00Z,26.5545,-82.1715,1.845,5.74,1111122 
SCCF RECON,ioos:station:SCCF:51:1,2009-04-07T03:00:00Z,26.5545,-82.1715,1.933,5.69,1111122 
SCCF RECON,ioos:station:SCCF:51:1,2009-04-07T04:00:00Z,26.5545,-82.1715,1.992,5.68,1111122 
SCCF RECON,ioos:station:SCCF:51:1,2009-04-07T05:00:00Z,26.5545,-82.1715,1.991,5.35,1111122 
SCCF RECON,ioos:station:SCCF:51:1,2009-04-07T06:00:00Z,26.5545,-82.1715,1.928,5.48,1111122 
SCCF RECON,ioos:station:SCCF:51:1,2009-04-07T07:00:00Z,26.5545,-82.1715,1.835,5.54,1111122 
SCCF RECON,ioos:station:SCCF:51:1,2009-04-07T08:00:00Z,26.5545,-82.1715,1.727,5.59,1111122 
SCCF RECON,ioos:station:SCCF:51:1,2009-04-07T09:00:00Z,26.5545,-82.1715,1.628,5.73,1111122 
SCCF RECON,ioos:station:SCCF:51:1,2009-04-07T10:00:00Z,26.5545,-82.1715,1.568,5.75,1111122 
SCCF RECON,ioos:station:SCCF:51:1,2009-04-07T11:00:00Z,26.5545,-82.1715,1.545,5.8,1111122 
SCCF RECON,ioos:station:SCCF:51:1,2009-04-07T12:00:00Z,26.5545,-82.1715,1.551,5.72,1111122 
SCCF RECON,ioos:station:SCCF:51:1,2009-04-07T13:00:00Z,26.5545,-82.1715,1.626,5.19,1111122 
SCCF RECON,ioos:station:SCCF:51:1,2009-04-07T14:00:00Z,26.5545,-82.1715,1.711,5.47,1111122 
SCCF RECON,ioos:station:SCCF:51:1,2009-04-07T15:00:00Z,26.5545,-82.1715,1.785,5.55,1111122 
SCCF RECON,ioos:station:SCCF:51:1,2009-04-07T16:00:00Z,26.5545,-82.1715,1.825,5.76,1111122 
SCCF RECON,ioos:station:SCCF:51:1,2009-04-07T17:00:00Z,26.5545,-82.1715,1.832,5.61,1111122 
SCCF RECON,ioos:station:SCCF:51:1,2009-04-07T18:00:00Z,26.5545,-82.1715,1.77,5.55,1111122 
SCCF RECON,ioos:station:SCCF:51:1,2009-04-07T19:00:00Z,26.5545,-82.1715,1.682,5.71,1111122 
SCCF RECON,ioos:station:SCCF:51:1,2009-04-07T20:00:00Z,26.5545,-82.1715,1.585,5.86,1111122 
SCCF RECON,ioos:station:SCCF:51:1,2009-04-07T21:00:00Z,26.5545,-82.1715,1.499,5.98,1111122 
SCCF RECON,ioos:station:SCCF:51:1,2009-04-07T22:00:00Z,26.5545,-82.1715,1.44,6.08,1111122 
SCCF RECON,ioos:station:SCCF:51:1,2009-04-07T23:00:00Z,26.5545,-82.1715,1.0,-9999.0,1111122 
SCCF RECON,ioos:station:SCCF:51:1,2009-04-08T00:00:00Z,26.5545,-82.1715,1.429,6.16,1111122 
SCCF RECON,ioos:station:SCCF:51:1,2009-04-08T01:00:00Z,26.5545,-82.1715,1.488,6.19,1111122 
SCCF RECON,ioos:station:SCCF:51:1,2009-04-08T02:00:00Z,26.5545,-82.1715,1.586,6.21,1111122 
SCCF RECON,ioos:station:SCCF:51:1,2009-04-08T03:00:00Z,26.5545,-82.1715,1.68,6.48,1111122 
SCCF RECON,ioos:station:SCCF:51:1,2009-04-08T04:00:00Z,26.5545,-82.1715,1.792,6.48,1111122 
SCCF RECON,ioos:station:SCCF:51:1,2009-04-08T05:00:00Z,26.5545,-82.1715,1.865,6.41,1111122 
SCCF RECON,ioos:station:SCCF:51:1,2009-04-08T06:00:00Z,26.5545,-82.1715,1.865,6.35,1111122 
SCCF RECON,ioos:station:SCCF:51:1,2009-04-08T07:00:00Z,26.5545,-82.1715,1.789,6.34,1111122 
SCCF RECON,ioos:station:SCCF:51:1,2009-04-08T08:00:00Z,26.5545,-82.1715,1.695,6.38,1111122 
SCCF RECON,ioos:station:SCCF:51:1,2009-04-08T09:00:00Z,26.5545,-82.1715,1.598,6.3,1111122 
SCCF RECON,ioos:station:SCCF:51:1,2009-04-08T10:00:00Z,26.5545,-82.1715,1.522,6.28,1111122 
SCCF RECON,ioos:station:SCCF:51:1,2009-04-08T11:00:00Z,26.5545,-82.1715,1.484,6.25,1111122 
SCCF RECON,ioos:station:SCCF:51:1,2009-04-08T12:00:00Z,26.5545,-82.1715,1.497,6.19,1111122 
SCCF RECON,ioos:station:SCCF:51:1,2009-04-08T13:00:00Z,26.5545,-82.1715,1.572,6.27,1111122 
SCCF RECON,ioos:station:SCCF:51:1,2009-04-08T14:00:00Z,26.5545,-82.1715,1.663,6.4,1111122 
SCCF RECON,ioos:station:SCCF:51:1,2009-04-08T15:00:00Z,26.5545,-82.1715,1.79,6.55,1111122 
SCCF RECON,ioos:station:SCCF:51:1,2009-04-08T16:00:00Z,26.5545,-82.1715,1.9,6.67,1111122 
SCCF RECON,ioos:station:SCCF:51:1,2009-04-08T17:00:00Z,26.5545,-82.1715,1.952,6.71,1111122 
SCCF RECON,ioos:station:SCCF:51:1,2009-04-08T18:00:00Z,26.5545,-82.1715,1.92,6.79,1111122 
SCCF RECON,ioos:station:SCCF:51:1,2009-04-08T19:00:00Z,26.5545,-82.1715,1.832,6.78,1111122 
SCCF RECON,ioos:station:SCCF:51:1,2009-04-08T20:00:00Z,26.5545,-82.1715,1.715,6.96,1111122 
SCCF RECON,ioos:station:SCCF:51:1,2009-04-08T21:00:00Z,26.5545,-82.1715,1.585,7.0,1111122 
SCCF RECON,ioos:station:SCCF:51:1,2009-04-08T22:00:00Z,26.5545,-82.1715,1.482,6.9,1111122 
SCCF RECON,ioos:station:SCCF:51:1,2009-04-08T23:00:00Z,26.5545,-82.1715,1.409,6.63,1111122 
SCCF RECON,ioos:station:SCCF:51:1,2009-04-09T00:00:00Z,26.5545,-82.1715,1.384,6.34,1111122 
SCCF RECON,ioos:station:SCCF:51:1,2009-04-09T01:00:00Z,26.5545,-82.1715,1.44,6.33,1111122 
SCCF RECON,ioos:station:SCCF:51:1,2009-04-09T02:00:00Z,26.5545,-82.1715,1.521,6.61,1111122 
SCCF RECON,ioos:station:SCCF:51:1,2009-04-09T03:00:00Z,26.5545,-82.1715,1.65,6.11,1111122 
SCCF RECON,ioos:station:SCCF:51:1,2009-04-09T04:00:00Z,26.5545,-82.1715,1.77,6.27,1111122 
SCCF RECON,ioos:station:SCCF:51:1,2009-04-09T05:00:00Z,26.5545,-82.1715,1.876,6.23,1111122 
SCCF RECON,ioos:station:SCCF:51:1,2009-04-09T06:00:00Z,26.5545,-82.1715,1.93,5.86,1111122 
SCCF RECON,ioos:station:SCCF:51:1,2009-04-09T07:00:00Z,26.5545,-82.1715,1.91,5.82,1111122 
SCCF RECON,ioos:station:SCCF:51:1,2009-04-09T08:00:00Z,26.5545,-82.1715,1.831,5.72,1111122 
SCCF RECON,ioos:station:SCCF:51:1,2009-04-09T09:00:00Z,26.5545,-82.1715,1.733,5.92,1111122 
SCCF RECON,ioos:station:SCCF:51:1,2009-04-09T10:00:00Z,26.5545,-82.1715,1.65,5.76,1111122 
SCCF RECON,ioos:station:SCCF:51:1,2009-04-09T11:00:00Z,26.5545,-82.1715,1.592,5.59,1111122 
SCCF RECON,ioos:station:SCCF:51:1,2009-04-09T12:00:00Z,26.5545,-82.1715,1.605,5.72,1111122 
SCCF RECON,ioos:station:SCCF:51:1,2009-04-09T13:00:00Z,26.5545,-82.1715,1.662,6.08,1111122 
SCCF RECON,ioos:station:SCCF:51:1,2009-04-09T14:00:00Z,26.5545,-82.1715,1.752,6.08,1111122 
SCCF RECON,ioos:station:SCCF:51:1,2009-04-09T15:00:00Z,26.5545,-82.1715,1.882,5.9,1111122 
SCCF RECON,ioos:station:SCCF:51:1,2009-04-09T16:00:00Z,26.5545,-82.1715,1.998,5.87,1111122 
SCCF RECON,ioos:station:SCCF:51:1,2009-04-09T17:00:00Z,26.5545,-82.1715,2.042,5.89,1111122 
SCCF RECON,ioos:station:SCCF:51:1,2009-04-09T18:00:00Z,26.5545,-82.1715,2.009,6.0,1111122 
SCCF RECON,ioos:station:SCCF:51:1,2009-04-09T19:00:00Z,26.5545,-82.1715,1.923,7.16,1111122 
SCCF RECON,ioos:station:SCCF:51:1,2009-04-09T20:00:00Z,26.5545,-82.1715,1.811,7.24,1111122 
SCCF RECON,ioos:station:SCCF:51:1,2009-04-09T21:00:00Z,26.5545,-82.1715,1.684,7.61,1111122 
SCCF RECON,ioos:station:SCCF:51:1,2009-04-09T22:00:00Z,26.5545,-82.1715,1.563,7.84,1111122 
SCCF RECON,ioos:station:SCCF:51:1,2009-04-09T23:00:00Z,26.5545,-82.1715,1.453,7.78,1111122 
SCCF RECON,ioos:station:SCCF:51:1,2009-04-10T00:00:00Z,26.5545,-82.1715,1.371,8.16,1111122 
SCCF RECON,ioos:station:SCCF:51:1,2009-04-10T01:00:00Z,26.5545,-82.1715,1.373,8.01,1111122 
SCCF RECON,ioos:station:SCCF:51:1,2009-04-10T02:00:00Z,26.5545,-82.1715,1.458,7.8,1111122 
SCCF RECON,ioos:station:SCCF:51:1,2009-04-10T03:00:00Z,26.5545,-82.1715,1.584,7.12,1111122 
SCCF RECON,ioos:station:SCCF:51:1,2009-04-10T04:00:00Z,26.5545,-82.1715,1.754,7.06,1111122 
SCCF RECON,ioos:station:SCCF:51:1,2009-04-10T05:00:00Z,26.5545,-82.1715,1.867,6.76,1111122 
SCCF RECON,ioos:station:SCCF:51:1,2009-04-10T06:00:00Z,26.5545,-82.1715,1.945,6.73,1111122 
SCCF RECON,ioos:station:SCCF:51:1,2009-04-10T07:00:00Z,26.5545,-82.1715,1.956,6.59,1111122 
SCCF RECON,ioos:station:SCCF:51:1,2009-04-10T08:00:00Z,26.5545,-82.1715,1.913,6.66,1111122 
SCCF RECON,ioos:station:SCCF:51:1,2009-04-10T09:00:00Z,26.5545,-82.1715,1.861,7.04,1111122 
SCCF RECON,ioos:station:SCCF:51:1,2009-04-10T10:00:00Z,26.5545,-82.1715,1.796,7.35,1111122 
SCCF RECON,ioos:station:SCCF:51:1,2009-04-10T11:00:00Z,26.5545,-82.1715,1.752,7.47,1111122 
SCCF RECON,ioos:station:SCCF:51:1,2009-04-10T12:00:00Z,26.5545,-82.1715,1.783,7.18,1111122 
SCCF RECON,ioos:station:SCCF:51:1,2009-04-10T13:00:00Z,26.5545,-82.1715,1.817,6.98,1111122 
SCCF RECON,ioos:station:SCCF:51:1,2009-04-10T14:00:00Z,26.5545,-82.1715,1.917,7.01,1111122 
SCCF RECON,ioos:station:SCCF:51:1,2009-04-10T15:00:00Z,26.5545,-82.1715,2.05,6.46,1111122 
SCCF RECON,ioos:station:SCCF:51:1,2009-04-10T16:00:00Z,26.5545,-82.1715,2.16,6.52,1111122 
SCCF RECON,ioos:station:SCCF:51:1,2009-04-10T17:00:00Z,26.5545,-82.1715,2.218,6.56,1111122 
SCCF RECON,ioos:station:SCCF:51:1,2009-04-10T18:00:00Z,26.5545,-82.1715,2.229,6.54,1111122 
SCCF RECON,ioos:station:SCCF:51:1,2009-04-10T19:00:00Z,26.5545,-82.1715,2.151,6.71,1111122 
SCCF RECON,ioos:station:SCCF:51:1,2009-04-10T20:00:00Z,26.5545,-82.1715,2.04,6.57,1111122 
SCCF RECON,ioos:station:SCCF:51:1,2009-04-10T21:00:00Z,26.5545,-82.1715,1.917,7.22,1111122 
SCCF RECON,ioos:station:SCCF:51:1,2009-04-10T22:00:00Z,26.5545,-82.1715,1.77,7.0,1111122 
SCCF RECON,ioos:station:SCCF:51:1,2009-04-10T23:00:00Z,26.5545,-82.1715,1.633,7.46,1111122 
SCCF RECON,ioos:station:SCCF:51:1,2009-04-11T00:00:00Z,26.5545,-82.1715,1.517,7.08,1111122 
SCCF RECON,ioos:station:SCCF:51:1,2009-04-11T01:00:00Z,26.5545,-82.1715,1.434,7.0,1111122 
SCCF RECON,ioos:station:SCCF:51:1,2009-04-11T02:00:00Z,26.5545,-82.1715,1.421,7.25,1111122 
SCCF RECON,ioos:station:SCCF:51:1,2009-04-11T03:00:00Z,26.5545,-82.1715,1.51,7.27,1111122 
SCCF RECON,ioos:station:SCCF:51:1,2009-04-11T04:00:00Z,26.5545,-82.1715,1.637,7.01,1111122 
SCCF RECON,ioos:station:SCCF:51:1,2009-04-11T05:00:00Z,26.5545,-82.1715,1.763,6.52,1111122 
SCCF RECON,ioos:station:SCCF:51:1,2009-04-11T06:00:00Z,26.5545,-82.1715,1.864,6.32,1111122 
SCCF RECON,ioos:station:SCCF:51:1,2009-04-11T07:00:00Z,26.5545,-82.1715,1.903,6.29,1111122 
SCCF RECON,ioos:station:SCCF:51:1,2009-04-11T08:00:00Z,26.5545,-82.1715,1.892,6.29,1111122 
SCCF RECON,ioos:station:SCCF:51:1,2009-04-11T09:00:00Z,26.5545,-82.1715,1.84,6.46,1111122 
SCCF RECON,ioos:station:SCCF:51:1,2009-04-11T10:00:00Z,26.5545,-82.1715,1.79,6.54,1111122 
SCCF RECON,ioos:station:SCCF:51:1,2009-04-11T11:00:00Z,26.5545,-82.1715,1.741,6.47,1111122 
SCCF RECON,ioos:station:SCCF:51:1,2009-04-11T12:00:00Z,26.5545,-82.1715,1.714,6.4,1111122 
SCCF RECON,ioos:station:SCCF:51:1,2009-04-11T13:00:00Z,26.5545,-82.1715,1.744,6.47,1111122 
SCCF RECON,ioos:station:SCCF:51:1,2009-04-11T14:00:00Z,26.5545,-82.1715,1.802,6.43,1111122 
SCCF RECON,ioos:station:SCCF:51:1,2009-04-11T15:00:00Z,26.5545,-82.1715,1.89,6.35,1111122 
SCCF RECON,ioos:station:SCCF:51:1,2009-04-11T16:00:00Z,26.5545,-82.1715,2.004,6.33,1111122 
SCCF RECON,ioos:station:SCCF:51:1,2009-04-11T17:00:00Z,26.5545,-82.1715,2.088,6.41,1111122 
SCCF RECON,ioos:station:SCCF:51:1,2009-04-11T18:00:00Z,26.5545,-82.1715,2.109,6.4,1111122 
SCCF RECON,ioos:station:SCCF:51:1,2009-04-11T19:00:00Z,26.5545,-82.1715,2.051,6.53,1111122 